Location: Lake Crest
(37.6062°N, 88.9176°W)
Time: 18:48:39
(UTC+00:00)

USA 229 DEB - Visible Passes

Search period start: 10 April 2020 00:00
Search period end: 20 April 2020 00:00
Orbit: 988 x 1224 km, 63.4° (Epoch: 26 March)

Date Brightness Start Highest point End Pass type
(mag) Time Alt. Az. Time Alt. Az. Time Alt. Az.
10 Apr 6.3 10:54:33 10° SE 10:57:38 14° ESE 11:00:45 10° ENE visible
13 Apr 6.0 10:29:23 10° SSE 10:33:52 20° ESE 10:38:28 10° ENE visible
14 Apr 6.4 09:48:37 10° ESE 09:49:35 10° ESE 09:50:32 10° E visible
15 Apr 4.7 10:48:32 10° S 10:54:39 47° ESE 11:01:01 10° NE visible
16 Apr 5.4 10:04:50 10° SSE 10:10:10 28° ESE 10:15:38 10° NE visible
17 Apr 5.9 09:22:09 10° SE 09:25:48 16° ESE 09:29:31 10° ENE visible
18 Apr 4.0 10:24:42 10° SSW 10:31:04 64° ESE 10:37:43 10° NE visible
19 Apr 4.8 09:40:38 10° S 09:46:30 38° ESE 09:52:35 10° NE visible
